User: anonymous   Login
Location: Unspecified
(0.0000°N, 0.0000°E)
Time: 22:33:57
(UTC+00:00)
Language:

Vela 1A - Orbit

View from above orbital plane
View from above orbital plane
View from above satellite
View from above satellite

Ground track
Ground track

The orbit data is extracted from the following two-line orbital elements,

1 00692U 63039C   16268.72475824 -.00001828  00000-0  00000+0 0  9999
2 00692  36.5836 355.3440 5469770 180.3776   0.3301  0.21849385 42737
Epoch (UTC): 24 September 2016 17:23:39
Eccentricity: 0.5469770
inclination: 36.5836°
perigee height: 46372 km
apogee height: 173753 km
right ascension of ascending node: 355.3440°
argument of perigee: 180.3776°
revolutions per day: 0.21849385
mean anomaly at epoch: 0.3301°
orbit number at epoch: 4273

The dashed part of the orbit path shows where the satellite is in the earth's shadow,  

DLR